Madison, MN

4:55 PM CDT on September 19, 2019 (GMT -0500)
Madison-Lac Qui Parle County

Weather History for KDXX - July, 2019

Change the Weather History Date:

Tuesday, July 23, 2019

  Actual Average (WUND) Record (WUND)
Temperature  
Mean Temperature 70 °F -  
Max Temperature 82 °F - - (-1)
Min Temperature 57 °F - - (-1)
Cooling Degree Days 4    
Growing Degree Days 20 (Base 50)    
Moisture  
Dew Point 59 °F    
Average Humidity 68    
Maximum Humidity 94    
Minimum Humidity 39    
Precipitation  
Precipitation 0.00 in - - ()
Sea Level Pressure  
Sea Level Pressure 30.24 in    
Wind  
Wind Speed 3 mph (WNW)    
Max Wind Speed 7 mph    
Max Gust Speed -    
Visibility 10 miles    
Events      
Averages and records for this station are not official NWS values.
T = Trace of Precipitation, MM = Missing Value Source: NWS Daily Summary

Daily Weather History Graph

Daily Weather History Graph

Search for Another Location

Airport or City:

Astronomy

Jul. 23, 2019 Rise Set
Actual Time 6:00 AM CDT 9:01 PM CDT
Civil Twilight 5:25 AM CDT 9:36 PM CDT
Nautical Twilight 4:40 AM CDT 10:21 PM CDT
Astronomical Twilight 3:46 AM CDT 11:14 PM CDT
Moon 12:09 AM CDT (7/23) 12:30 PM CDT (7/23)
Length of Visible Light 16h 11m
Length of Day
15h 01m
Waning Gibbous, 63% of the Moon is Illuminated
Jul 23
Waning Gibbous
Jul 24
Last Quarter
Jul 31
New
Aug 7
First Quarter
Aug 15
Full

Hourly Weather History & Observations

Time (CDT) Temp. Heat Index Dew Point Humidity Pressure Visibility Wind Dir Wind Speed Gust Speed Precip Events Conditions
12:15 AM 62.6 °F - 59.0 °F 88% 30.27 in 10.0 mi West 3.5 mph - N/A   Clear
12:37 AM 60.8 °F - 57.2 °F 88% 30.27 in 10.0 mi West 3.5 mph - N/A   Clear
12:55 AM 59.0 °F - 57.2 °F 94% 30.27 in 10.0 mi Calm Calm - N/A   Clear
1:15 AM 59.0 °F - 57.2 °F 94% 30.28 in 10.0 mi West 4.6 mph - N/A   Clear
1:35 AM 60.8 °F - 57.2 °F 88% 30.28 in 10.0 mi West 5.8 mph - N/A   Clear
1:36 AM 60.8 °F - 57.2 °F 88% 30.28 in 10.0 mi West 5.8 mph - N/A   Clear
1:58 AM 59.0 °F - 55.4 °F 88% 30.27 in 10.0 mi West 6.9 mph - N/A   Clear
2:15 AM 59.0 °F - 55.4 °F 88% 30.27 in 10.0 mi West 4.6 mph - N/A   Clear
2:35 AM 59.0 °F - 55.4 °F 88% 30.27 in 10.0 mi West 3.5 mph - N/A   Clear
2:36 AM 59.0 °F - 55.4 °F 88% 30.27 in 10.0 mi West 3.5 mph - N/A   Clear
2:55 AM 59.0 °F - 55.4 °F 88% 30.27 in 10.0 mi West 4.6 mph - N/A   Clear
2:56 AM 59.0 °F - 55.4 °F 88% 30.27 in 10.0 mi West 4.6 mph - N/A   Clear
3:18 AM 57.2 °F - 55.4 °F 94% 30.28 in 10.0 mi West 4.6 mph - N/A   Clear
3:36 AM 59.0 °F - 55.4 °F 88% 30.28 in 10.0 mi West 4.6 mph - N/A   Clear
3:55 AM 57.2 °F - 55.4 °F 94% 30.28 in 10.0 mi West 4.6 mph - N/A   Clear
4:15 AM 57.2 °F - 55.4 °F 94% 30.27 in 10.0 mi West 4.6 mph - N/A   Clear
4:16 AM 57.2 °F - 55.4 °F 94% 30.27 in 10.0 mi West 4.6 mph - N/A   Clear
4:35 AM 57.2 °F - 55.4 °F 94% 30.27 in 10.0 mi WNW 3.5 mph - N/A   Clear
4:40 AM 57.2 °F - 55.4 °F 94% 30.27 in 10.0 mi West 3.5 mph - N/A   Clear
4:57 AM 57.2 °F - 55.4 °F 94% 30.27 in 10.0 mi West 4.6 mph - N/A   Clear
5:15 AM 57.2 °F - 55.4 °F 94% 30.27 in 10.0 mi West 4.6 mph - N/A   Scattered Clouds
5:35 AM 57.2 °F - 55.4 °F 94% 30.27 in 10.0 mi West 4.6 mph - N/A   Scattered Clouds
5:55 AM 57.2 °F - 55.4 °F 94% 30.27 in 10.0 mi Calm Calm - N/A   Scattered Clouds
5:56 AM 57.2 °F - 55.4 °F 94% 30.27 in 10.0 mi Calm Calm - N/A   Clear
6:18 AM 57.2 °F - 55.4 °F 94% 30.27 in 10.0 mi Calm Calm - N/A   Clear
6:37 AM 57.2 °F - 55.4 °F 94% 30.27 in 10.0 mi Calm Calm - N/A   Clear
6:56 AM 59.0 °F - 57.2 °F 94% 30.28 in 10.0 mi Calm Calm - N/A   Scattered Clouds
7:15 AM 60.8 °F - 57.2 °F 88% 30.28 in 10.0 mi Calm Calm - N/A   Scattered Clouds
7:16 AM 60.8 °F - 57.2 °F 88% 30.28 in 10.0 mi Calm Calm - N/A   Scattered Clouds
7:35 AM 62.6 °F - 59.0 °F 88% 30.28 in 10.0 mi West 3.5 mph - N/A   Scattered Clouds
7:39 AM 62.6 °F - 59.0 °F 88% 30.28 in 10.0 mi West 4.6 mph - N/A   Scattered Clouds
7:57 AM 64.4 °F - 60.8 °F 88% 30.28 in 10.0 mi Calm Calm - N/A   Scattered Clouds
8:16 AM 66.2 °F - 60.8 °F 83% 30.27 in 10.0 mi Calm Calm - N/A   Clear
8:35 AM 68.0 °F - 60.8 °F 78% 30.28 in 10.0 mi West 3.5 mph - N/A   Clear
8:36 AM 69.8 °F - 60.8 °F 73% 30.28 in 10.0 mi West 3.5 mph - N/A   Clear
8:55 AM 69.8 °F - 60.8 °F 73% 30.28 in 10.0 mi WNW 3.5 mph - N/A   Clear
8:56 AM 69.8 °F - 60.8 °F 73% 30.28 in 10.0 mi WNW 3.5 mph - N/A   Clear
9:18 AM 71.6 °F - 62.6 °F 73% 30.28 in 10.0 mi NW 4.6 mph - N/A   Clear
9:36 AM 73.4 °F - 62.6 °F 69% 30.28 in 10.0 mi NW 3.5 mph - N/A   Clear
9:55 AM 75.2 °F - 62.6 °F 65% 30.28 in 10.0 mi Calm Calm - N/A   Clear
10:15 AM 75.2 °F - 62.6 °F 65% 30.28 in 10.0 mi North 3.5 mph - N/A   Clear
10:16 AM 75.2 °F - 62.6 °F 65% 30.28 in 10.0 mi North 4.6 mph - N/A   Clear
10:35 AM 77.0 °F - 60.8 °F 57% 30.28 in 10.0 mi Calm Calm - N/A   Clear
10:39 AM 77.0 °F - 62.6 °F 61% 30.28 in 10.0 mi NW 3.5 mph - N/A   Clear
10:58 AM 77.0 °F - 60.8 °F 57% 30.27 in 10.0 mi Calm Calm - N/A   Clear
11:15 AM 78.8 °F - 57.2 °F 47% 30.27 in 10.0 mi Calm Calm - N/A   Clear
11:35 AM 78.8 °F - 57.2 °F 47% 30.27 in 10.0 mi NNW 3.5 mph - N/A   Scattered Clouds
11:36 AM 78.8 °F - 57.2 °F 47% 30.27 in 10.0 mi NNW 3.5 mph - N/A   Scattered Clouds
11:55 AM 78.8 °F - 57.2 °F 47% 30.27 in 10.0 mi East 3.5 mph - N/A   Scattered Clouds
12:18 PM 80.6 °F 81.1 °F 59.0 °F 48% 30.26 in 10.0 mi Calm Calm - N/A   Scattered Clouds
12:37 PM 78.8 °F - 57.2 °F 47% 30.26 in 10.0 mi NW 5.8 mph - N/A   Scattered Clouds
12:56 PM 80.6 °F 81.1 °F 59.0 °F 48% 30.26 in 10.0 mi East 3.5 mph - N/A   Scattered Clouds
1:15 PM 80.6 °F 80.8 °F 57.2 °F 45% 30.25 in 10.0 mi Calm Calm - N/A   Clear
1:16 PM 80.6 °F 80.8 °F 57.2 °F 45% 30.25 in 10.0 mi Calm Calm - N/A   Clear
1:35 PM 80.6 °F 80.5 °F 55.4 °F 42% 30.25 in 10.0 mi Calm Calm - N/A   Scattered Clouds
1:57 PM 80.6 °F 80.8 °F 57.2 °F 45% 30.25 in 10.0 mi North 3.5 mph - N/A   Scattered Clouds
2:15 PM 80.6 °F 80.8 °F 57.2 °F 45% 30.24 in 10.0 mi West 3.5 mph - N/A   Clear
2:35 PM 80.6 °F 80.8 °F 57.2 °F 45% 30.24 in 10.0 mi Calm Calm - N/A   Scattered Clouds
2:55 PM 80.6 °F 80.8 °F 57.2 °F 45% 30.24 in 10.0 mi North 4.6 mph - N/A   Scattered Clouds
2:56 PM 80.6 °F 80.8 °F 57.2 °F 45% 30.24 in 10.0 mi North 4.6 mph - N/A   Scattered Clouds
3:18 PM 80.6 °F 80.8 °F 57.2 °F 45% 30.23 in 10.0 mi Calm Calm - N/A   Clear
3:37 PM 82.4 °F 82.0 °F 57.2 °F 42% 30.22 in 10.0 mi Calm Calm - N/A   Clear
3:56 PM 80.6 °F 80.8 °F 57.2 °F 45% 30.22 in 10.0 mi Calm Calm - N/A   Mostly Cloudy
4:15 PM 80.6 °F 80.8 °F 57.2 °F 45% 30.21 in 10.0 mi Calm Calm - N/A   Mostly Cloudy
4:16 PM 80.6 °F 80.8 °F 57.2 °F 45% 30.21 in 10.0 mi Calm Calm - N/A   Mostly Cloudy
4:35 PM 80.6 °F 80.8 °F 57.2 °F 45% 30.21 in 10.0 mi Calm Calm - N/A   Scattered Clouds
4:56 PM 82.4 °F 82.0 °F 57.2 °F 42% 30.21 in 10.0 mi Calm Calm - N/A   Scattered Clouds
5:16 PM 82.4 °F 81.7 °F 55.4 °F 39% 30.21 in 10.0 mi Calm Calm - N/A   Clear
5:35 PM 82.4 °F 81.7 °F 55.4 °F 39% 30.20 in 10.0 mi Calm Calm - N/A   Clear
5:36 PM 82.4 °F 81.7 °F 55.4 °F 39% 30.20 in 10.0 mi Calm Calm - N/A   Clear
5:59 PM 80.6 °F 80.8 °F 57.2 °F 45% 30.20 in 10.0 mi Calm Calm - N/A   Scattered Clouds
6:16 PM 80.6 °F 80.8 °F 57.2 °F 45% 30.19 in 10.0 mi Calm Calm - N/A   Clear
6:36 PM 80.6 °F 81.1 °F 59.0 °F 48% 30.19 in 10.0 mi Calm Calm - N/A   Clear
6:55 PM 80.6 °F 80.8 °F 57.2 °F 45% 30.19 in 10.0 mi Calm Calm - N/A   Clear
7:15 PM 80.6 °F 81.5 °F 60.8 °F 51% 30.18 in 10.0 mi Calm Calm - N/A   Clear
7:19 PM 80.6 °F 81.5 °F 60.8 °F 51% 30.18 in 10.0 mi Calm Calm - N/A   Clear
7:37 PM 80.6 °F 80.8 °F 57.2 °F 45% 30.18 in 10.0 mi Calm Calm - N/A   Clear
7:56 PM 80.6 °F 81.5 °F 60.8 °F 51% 30.18 in 10.0 mi Calm Calm - N/A   Clear
8:15 PM 78.8 °F - 66.2 °F 65% 30.17 in 10.0 mi Calm Calm - N/A   Clear
8:16 PM 78.8 °F - 66.2 °F 65% 30.17 in 10.0 mi Calm Calm - N/A   Clear
8:35 PM 75.2 °F - 66.2 °F 73% 30.17 in 10.0 mi Calm Calm - N/A   Clear
8:36 PM 75.2 °F - 66.2 °F 73% 30.17 in 10.0 mi Calm Calm - N/A   Clear
8:58 PM 77.0 °F - 60.8 °F 57% 30.17 in 10.0 mi Calm Calm - N/A   Clear
9:16 PM 77.0 °F - 60.8 °F 57% 30.18 in 10.0 mi Calm Calm - N/A   Clear
9:35 PM 75.2 °F - 57.2 °F 53% 30.18 in 10.0 mi Calm Calm - N/A   Clear
9:36 PM 75.2 °F - 57.2 °F 53% 30.18 in 10.0 mi Calm Calm - N/A   Clear
9:55 PM 73.4 °F - 60.8 °F 65% 30.19 in 10.0 mi Calm Calm - N/A   Clear
9:56 PM 73.4 °F - 60.8 °F 65% 30.19 in 10.0 mi Calm Calm - N/A   Clear
10:15 PM 71.6 °F - 62.6 °F 73% 30.19 in 10.0 mi Calm Calm - N/A   Clear
10:19 PM 71.6 °F - 60.8 °F 69% 30.19 in 10.0 mi Calm Calm - N/A   Clear
10:38 PM 71.6 °F - 60.8 °F 69% 30.19 in 10.0 mi Calm Calm - N/A   Clear
10:55 PM 69.8 °F - 62.6 °F 78% 30.18 in 10.0 mi Calm Calm - N/A   Clear
11:15 PM 69.8 °F - 62.6 °F 78% 30.19 in 10.0 mi Calm Calm - N/A   Clear
11:16 PM 71.6 °F - 60.8 °F 69% 30.19 in 10.0 mi Calm Calm - N/A   Clear
11:35 PM 69.8 °F - 62.6 °F 78% 30.19 in 10.0 mi SW 3.5 mph - N/A   Clear
11:58 PM 66.2 °F - 62.6 °F 88% 30.19 in 10.0 mi Calm Calm - N/A   Clear